Weather reports worldwide

Advertisment
Moron de la Frontera, Spain (8397): temperature & dewpoint: 20.09.2018 11:00:00 - 26.09.2018 11:00:00 (CEST)Moron de la Frontera, Spain (8397): wind speed: 20.09.2018 11:00:00 - 26.09.2018 11:00:00 (CEST)Moron de la Frontera, Spain (8397): wind direction: 20.09.2018 11:00:00 - 26.09.2018 11:00:00 (CEST)Moron de la Frontera, Spain (8397): reduced air pressure: 20.09.2018 11:00:00 - 26.09.2018 11:00:00 (CEST)Moron de la Frontera, Spain (8397): visibility: 20.09.2018 11:00:00 - 26.09.2018 11:00:00 (CEST)
Date & Time tt [°C] td [°C] ff [km/h] ff [kn] dd ppp [hPa] vv [km]
26.09.2018 11:00:00 29,2 16,4 15 8 SSE 1022,0 18
26.09.2018 10:00:00 - - - - - - -
26.09.2018 09:00:00 - - - - - - -
26.09.2018 08:00:00 24,4 15,6 5 3 SSE 1020,4 15
26.09.2018 07:00:00 - - - - - - -
26.09.2018 06:00:00 - - - - - - -
26.09.2018 05:00:00 25,5 16,1 8 4 ESE 1019,7 15
26.09.2018 04:00:00 - - - - - - -
26.09.2018 03:00:00 - - - - - - -
26.09.2018 02:00:00 24,3 15,5 4 2 ENE 1018,9 15
26.09.2018 01:00:00 - - - - - - -
26.09.2018 00:00:00 - - - - - - -
25.09.2018 23:00:00 26,7 14,8 2 1 S 1018,8 20
25.09.2018 22:00:00 - - - - - - -
25.09.2018 21:00:00 - - - - - - -
25.09.2018 20:00:00 32,2 15,2 15 8 SW 1016,9 25
25.09.2018 19:00:00 - - - - - - -
25.09.2018 18:00:00 - - - - - - -
25.09.2018 17:00:00 36,9 14,2 4 2 WNW 1016,7 25
25.09.2018 16:00:00 - - - - - - -
25.09.2018 15:00:00 - - - - - - -
25.09.2018 14:00:00 34,8 14,1 2 1 WNW 1018,9 25
25.09.2018 13:00:00 - - - - - - -
25.09.2018 12:00:00 - - - - - - -
25.09.2018 11:00:00 29,5 14,1 4 2 S 1019,7 25
25.09.2018 10:00:00 - - - - - - -
25.09.2018 09:00:00 - - - - - - -
25.09.2018 08:00:00 19,3 9,8 0 0 N 1018,5 25
25.09.2018 07:00:00 - - - - - - -
25.09.2018 06:00:00 - - - - - - -
25.09.2018 05:00:00 21,3 11,1 0 0 N 1018,3 30
25.09.2018 04:00:00 - - - - - - -
25.09.2018 03:00:00 - - - - - - -
25.09.2018 02:00:00 22,2 11,0 0 0 N 1018,8 30
25.09.2018 01:00:00 - - - - - - -
25.09.2018 00:00:00 - - - - - - -
24.09.2018 23:00:00 27,3 12,9 4 2 W 1018,1 30
24.09.2018 22:00:00 - - - - - - -
24.09.2018 21:00:00 - - - - - - -
24.09.2018 20:00:00 34,8 9,3 8 4 SE 1016,2 30
24.09.2018 19:00:00 - - - - - - -
24.09.2018 18:00:00 - - - - - - -
24.09.2018 17:00:00 36,9 11,0 9 5 ENE 1016,1 25
24.09.2018 16:00:00 - - - - - - -
24.09.2018 15:00:00 - - - - - - -
24.09.2018 14:00:00 35,6 12,5 13 7 E 1018,3 25
24.09.2018 13:00:00 - - - - - - -
24.09.2018 12:00:00 - - - - - - -
24.09.2018 11:00:00 29,7 13,0 4 2 E 1019,6 25
24.09.2018 10:00:00 - - - - - - -
24.09.2018 09:00:00 - - - - - - -
24.09.2018 08:00:00 20,3 8,6 0 0 N 1019,1 30
24.09.2018 07:00:00 - - - - - - -
24.09.2018 06:00:00 - - - - - - -
24.09.2018 05:00:00 20,9 8,5 4 2 S 1018,8 20
24.09.2018 04:00:00 - - - - - - -
24.09.2018 03:00:00 - - - - - - -
24.09.2018 02:00:00 22,9 8,6 0 0 N 1019,5 20
24.09.2018 01:00:00 - - - - - - -
24.09.2018 00:00:00 - - - - - - -
23.09.2018 23:00:00 28,8 8,5 4 2 SSW 1018,7 30
23.09.2018 22:00:00 - - - - - - -
23.09.2018 21:00:00 - - - - - - -
23.09.2018 20:00:00 34,0 9,9 13 7 SSE 1017,8 30
23.09.2018 19:00:00 - - - - - - -
23.09.2018 18:00:00 - - - - - - -
23.09.2018 17:00:00 36,4 11,3 18 10 SSE 1017,8 30
23.09.2018 16:00:00 - - - - - - -
23.09.2018 15:00:00 - - - - - - -
23.09.2018 14:00:00 35,4 12,4 13 7 E 1019,5 30
23.09.2018 13:00:00 - - - - - - -
23.09.2018 12:00:00 - - - - - - -
23.09.2018 11:00:00 29,0 12,0 11 6 ENE 1020,9 30
23.09.2018 10:00:00 - - - - - - -
23.09.2018 09:00:00 - - - - - - -
23.09.2018 08:00:00 24,1 8,1 11 6 E 1019,7 25
23.09.2018 07:00:00 - - - - - - -
23.09.2018 06:00:00 - - - - - - -
23.09.2018 05:00:00 21,6 9,5 4 2 ENE 1019,8 25
23.09.2018 04:00:00 - - - - - - -
23.09.2018 03:00:00 - - - - - - -
23.09.2018 02:00:00 25,4 10,1 4 2 NE 1020,6 25
23.09.2018 01:00:00 - - - - - - -
23.09.2018 00:00:00 - - - - - - -
22.09.2018 23:00:00 29,0 10,2 4 2 WSW 1020,0 25
22.09.2018 22:00:00 - - - - - - -
22.09.2018 21:00:00 - - - - - - -
22.09.2018 20:00:00 33,6 9,0 16 9 S 1018,4 25
22.09.2018 19:00:00 - - - - - - -
22.09.2018 18:00:00 - - - - - - -
22.09.2018 17:00:00 36,6 10,0 21 11 SSE 1018,1 25
22.09.2018 16:00:00 - - - - - - -
22.09.2018 15:00:00 - - - - - - -
22.09.2018 14:00:00 35,2 12,8 13 7 E 1019,5 25
22.09.2018 13:00:00 - - - - - - -
22.09.2018 12:00:00 - - - - - - -
22.09.2018 11:00:00 28,2 14,8 8 4 ENE 1020,4 20
22.09.2018 10:00:00 - - - - - - -
22.09.2018 09:00:00 - - - - - - -
22.09.2018 08:00:00 20,6 13,8 4 2 ESE 1019,3 15
22.09.2018 07:00:00 - - - - - - -
22.09.2018 06:00:00 - - - - - - -
22.09.2018 05:00:00 21,8 14,4 0 0 N 1018,6 15
22.09.2018 04:00:00 - - - - - - -
22.09.2018 03:00:00 - - - - - - -
22.09.2018 02:00:00 23,2 12,2 5 3 SSW 1019,1 15
22.09.2018 01:00:00 - - - - - - -
22.09.2018 00:00:00 - - - - - - -
21.09.2018 23:00:00 26,1 11,1 5 3 SSW 1018,1 20
21.09.2018 22:00:00 - - - - - - -
21.09.2018 21:00:00 - - - - - - -
21.09.2018 20:00:00 32,8 11,9 8 4 N 1015,8 25
21.09.2018 19:00:00 - - - - - - -
21.09.2018 18:00:00 - - - - - - -
21.09.2018 17:00:00 34,2 12,0 5 3 NNE 1015,8 25
21.09.2018 16:00:00 - - - - - - -
21.09.2018 15:00:00 - - - - - - -
21.09.2018 14:00:00 32,1 14,7 5 3 ENE 1017,9 25
21.09.2018 13:00:00 - - - - - - -
21.09.2018 12:00:00 - - - - - - -
21.09.2018 11:00:00 25,9 17,0 4 2 N 1018,4 20
21.09.2018 10:00:00 - - - - - - -
21.09.2018 09:00:00 - - - - - - -
21.09.2018 08:00:00 20,0 17,6 0 0 N 1017,8 6
21.09.2018 07:00:00 - - - - - - -
21.09.2018 06:00:00 - - - - - - -
21.09.2018 05:00:00 20,6 18,4 5 3 SSE 1017,6 20
21.09.2018 04:00:00 - - - - - - -
21.09.2018 03:00:00 - - - - - - -
21.09.2018 02:00:00 22,8 19,0 5 3 SW 1018,1 20
21.09.2018 01:00:00 - - - - - - -
21.09.2018 00:00:00 - - - - - - -
20.09.2018 23:00:00 24,9 18,1 11 6 W 1017,5 20
20.09.2018 22:00:00 - - - - - - -
20.09.2018 21:00:00 - - - - - - -
20.09.2018 20:00:00 30,9 14,9 4 2 W 1015,8 15
20.09.2018 19:00:00 - - - - - - -
20.09.2018 18:00:00 - - - - - - -
20.09.2018 17:00:00 33,1 15,6 4 2 WSW 1016,2 15
20.09.2018 16:00:00 - - - - - - -
20.09.2018 15:00:00 - - - - - - -
20.09.2018 14:00:00 30,1 16,1 5 3 W 1018,3 9
20.09.2018 13:00:00 - - - - - - -
20.09.2018 12:00:00 - - - - - - -
20.09.2018 11:00:00 26,0 17,4 4 2 SW 1019,5 6

tt = temperature
td = dewpoint
ff = wind speed
dd = wind direction
ppp = reduced air pressure
vv = visibility

Next stations